Weather Roundup
Issued by NWS

Home | Current Version | Previous Version | Graphics & Text | Print | Product List | Glossary Off
Versions: 1 2 3 4 5 6 7 8 9 10 11 12 13 14 15 16 17 18 19 20 21 22 23 24 25 26 27 28 29 30 31 32 33 34 35 36 37 38 39 40 41 42 43 44 45 46 47 48 49 50

000
NZUS93 KARX 221559
HRRWXR

CURRENT HOURLY OBSERVATIONS ACROSS
MUCH OF THE UPPER MISSISSIPPI VALLEY
NATIONAL WEATHER SERVICE LA CROSSE WI
1100 AM CDT WED MAR 22 2017


...SOUTHEAST MINNESOTA...


CITY           SKY/WX    TMP DP  RH WIND       PRES   REMARKS
ROCHESTER      SUNNY     29  10  45 SE15      30.52F WCI  18
ROCHESTER/MAYO FAIR      28   6  40 SE10G17   30.54S WCI  18
WINONA         SUNNY     32  10  40 E10       30.59F WCI  24
AUSTIN         SUNNY     28  12  50 SE10      30.51S WCI  19
ALBERT LEA     SUNNY     28  14  54 SE17      30.50S WCI  16
DODGE CENTER   SUNNY     28  12  50 SE16G23   30.51S WCI  17
PRESTON        SUNNY     28   7  41 SE9G17    30.54S WCI  19
OWATONNA       SUNNY     30  10  43 SE16      30.52R WCI  19
FARIBAULT      SUNNY     30  10  43 SE14      30.53S WCI  20
$$

...ELSEWHERE IN MINNESOTA...


CITY           SKY/WX    TMP DP  RH WIND       PRES   REMARKS
MINNEAPOLIS    MOSUNNY   31   7  36 SE14      30.55S WCI  21
INTNL FALLS    MOSUNNY   22   1  40 SE8       30.50F WCI  12
DULUTH         SUNNY     24   6  46 S7        30.52S WCI  16
RED WING       SUNNY     30   3  31 SE13      30.56F WCI  20
REDWOOD FALLS  CLOUDY    29  13  51 SE14      30.48S WCI  18
MANKATO        SUNNY     31  15  52 SE17      30.51S WCI  19
WORTHINGTON    CLOUDY    29  19  66 SE14      30.44R WCI  18
FAIRMONT       CLOUDY    30  19  63 S17       30.48S WCI  18
$$

...SOUTHWEST WISCONSIN...


CITY           SKY/WX    TMP DP  RH WIND       PRES   REMARKS
LA CROSSE      SUNNY     31   5  33 SE5       30.59F WCI  26
PRAIRIE DU CHI SUNNY     31   6  35 E9        30.59F WCI  23
BOSCOBEL       SUNNY     31   5  33 SE5       30.60F WCI  26
LONE ROCK      NOT AVBL
PLATTEVILLE    SUNNY     30  14  51 E9        30.59R WCI  21
FORT MC COY    SUNNY     29   8  40 E10       30.61R WCI  20
MAUSTON-NEW LI SUNNY     27   7  43 SE8       30.60S WCI  19
VIROQUA        FAIR      29   6  38 SE9       30.56S WCI  20
WIS DELLS      SUNNY     28   8  42 SE5       30.60S WCI  22
$$

...ELSEWHERE IN WISCONSIN...


CITY           SKY/WX    TMP DP  RH WIND       PRES   REMARKS
MILWAUKEE      CLOUDY    30  16  56 NE10      30.61R WCI  21
MADISON        SUNNY     29   9  43 E10       30.59F WCI  20
GREEN BAY      SUNNY     28  15  58 N3        30.63R
EAU CLAIRE     NOT AVBL
BLACK RVR FLS  FAIR      30   2  30 E6        30.60S WCI  24
MEDFORD        SUNNY     23   8  52 S6        30.55S WCI  15
WAUSAU         SUNNY     25   7  46 S7        30.57R WCI  17
WIS RAPIDS     SUNNY     27   8  44 SE6       30.61S WCI  20
MARSHFIELD     SUNNY     25   8  48 SE9       30.57R WCI  15
RICE LAKE      SUNNY     28   9  43 SE3       30.58S
$$

...NORTHEAST IOWA...


CITY           SKY/WX    TMP DP  RH WIND       PRES   REMARKS
WATERLOO         N/A    N/A N/A N/A MISG      30.54S
DUBUQUE        SUNNY     31  12  45 E12       30.56S WCI  22
DECORAH        SUNNY     28   7  40 SE9G16    30.54F WCI  20
MASON CITY     SUNNY     31  17  56 SE16      30.51F WCI  20
CHARLES CITY   SUNNY     30  14  51 SE16      30.52F WCI  19
OELWEIN        SUNNY     32  16  51 E13G24    30.54S WCI  22
$$

...ELSEWHERE IN IOWA...


CITY           SKY/WX    TMP DP  RH WIND       PRES   REMARKS
DES MOINES     CLOUDY    37  24  59 SE17      30.48F WCI  27
IOWA CITY      PTSUNNY   35  21  56 SE14      30.57R WCI  26
FORT DODGE     CLOUDY    34  19  55 SE13      30.48S WCI  25
MARSHALLTOWN   SUNNY     35  21  56 SE12G24   30.50S WCI  27
CEDAR RAPIDS   MOSUNNY   33  20  58 E15       30.54R WCI  23
$$

...NORTHERN ILLINOIS...


CITY           SKY/WX    TMP DP  RH WIND       PRES   REMARKS
CHICAGO-OHARE  CLOUDY    34  18  52 NE12      30.58R WCI  25
CHICAGO-MIDWAY PTSUNNY   31  17  56 NE10G24   30.59R WCI  22
MOLINE         SUNNY     36  17  46 E16       30.56S WCI  26
ROCKFORD       MOSUNNY   34  14  43 NE13      30.60S WCI  25
PEORIA         SUNNY     36  21  54 E16       30.56S WCI  26
$$

NOTE: "FAIR" INDICATES FEW OR NO CLOUDS BELOW 12,000 FEET WITH NO
SIGNIFICANT WEATHER AND/OR OBSTRUCTIONS TO VISIBILITY. WIND
SPEEDS ARE IN MILES-PER-HOUR.




USA.gov is the U.S. government's official web portal to all federal, state and local government web resources and services.